Location: Newark
(11.2914°S, 14.4718°E)
Time: 23:39:28
(UTC+00:00)

Tiros 1 despin weight - Pass Details

Date: 20 September 2019
Orbit: 594 x 643 km, 48.2° (Epoch: 17 October)

Event Time Altitude Azimuth Distance (km) Brightness Sun altitude
Rises 08:45:50 0° 250° (WSW) 2,942 ? 55.4°
Reaches altitude 10° 08:49:09 10° 274° (W) 2,022 ? 56.2°
Maximum altitude 08:51:40 14° 307° (NW) 1,738 ? 56.8°
Drops below altitude 10° 08:54:09 10° 340° (NNW) 2,002 ? 57.3°
Sets 08:57:26 0° 5° (N) 2,892 ? 58.1°
